[[{"header":{"parameterUnit":"m.s-1","parameterCategory":1,"la1":30.2991,"la2":30.254,"lo1":-89.0895,"lo2":-89.0444,"dy":0.0017,"dx":0.0017,"nx":28,"ny":28,"refTime":"2025-05-15T03:00:00:Z","depth":0,"parameterNumber":2,"parameterNumberName":"U-component_of_WINDS"},"data":[0,0,0,0,0,0,0,0,0,0,0,0,0,0,0,0,0,0,0,0,0,0,0,0,0,0,0,0,0,0,0,0,0,0,0,0,0,0,0,0,0,0,0,0,0,0,0,0,0,0,0,0,0,0,0,0,0,0,-1.1033,-1.1032,0,-1.1014,-1.1014,-1.1014,-1.1017,-1.1017,-1.1018,-1.1018,-1.0995,-1.0994,-1.0993,0,0,0,0,0,0,0,0,0,0,0,0,0,-1.1068,-1.1067,-1.1033,-1.1032,-1.1032,-1.1014,-1.1014,-1.1014,-1.1017,-1.1017,-1.1018,-1.1018,-1.0995,-1.0994,-1.0993,0,0,0,0,0,0,0,0,0,0,0,0,0,-1.1051,-1.1067,-1.1033,-1.1032,-1.1032,-1.1014,-1.1014,-1.1013,-1.1017,-1.1017,-1.1018,-1.1018,-1.0995,-1.0994,-1.0992,-1.0974,0,0,-1.0988,-1.0988,0,0,0,0,0,0,0,0,-1.1052,-1.105,-1.1032,-1.1032,-1.1031,-1.1018,-1.1018,-1.1,-1.1017,-1.1022,-1.1018,-1.1018,-1.1002,-1.1,-1.0995,-1.0973,-1.0972,-1.0988,-1.0987,-1.0987,-1.0986,0,0,0,0,0,0,0,-1.1053,-1.1051,-1.1025,-1.1032,-1.1031,-1.1031,-1.1029,-1.1014,-1.1009,-1.1022,-1.1022,-1.102,-1.1002,-1.0996,-1.0995,-1.0971,-1.0988,-1.0987,-1.0986,-1.0985,-1.0932,-1.0932,0,0,0,0,0,0,-1.1055,-1.1052,-1.1026,-1.1025,-1.1044,-1.103,-1.1028,-1.1022,-1.1009,-1.1008,-1.102,-1.102,-1.0999,-1.0996,-1.0994,-1.0971,-1.0987,-1.0985,-1.0984,-1.0933,-1.0932,-1.0932,0,0,0,0,0,0,-1.1056,-1.1053,-1.1027,-1.1038,-1.1035,-1.1029,-1.1022,-1.1021,-1.1016,-1.1008,-1.1007,-1.1015,-1.0999,-1.0996,-1.0979,-1.097,-1.0985,-1.0983,-1.0934,-1.0933,-1.0932,-1.0925,0,0,0,0,0,0,-1.1057,-1.1053,-1.1047,-1.1038,-1.1034,-1.1013,-1.1022,-1.1021,-1.1014,-1.1015,-1.1004,-1.1002,-1.0999,-1.0981,-1.0978,-1.0968,-1.0982,-1.0934,-1.0933,-1.0932,-1.0926,-1.0924,-1.0922,0,0,0,0,0,-1.1058,-1.1044,-1.1046,-1.1043,-1.1026,-1.1012,-1.101,-1.1008,-1.1014,-1.1006,-1.1001,-1.1002,-1.0972,-1.0979,-1.0975,-1.0966,-1.0935,-1.0934,-1.0932,-1.0927,-1.0924,-1.0922,0,0,0,0,0,0,-1.105,-1.1043,-1.1045,-1.1028,-1.1021,-1.1013,-1.1004,-1.1006,-1.0995,-1.0996,-1.0993,-1.0991,-1.0974,-1.0968,-1.0976,-1.0947,-1.0954,-1.0952,-1.0951,-1.0949,-1.0947,-1.0948,-1.0981,0,0,0,0,0,-1.1047,-1.1038,-1.1031,-1.1017,-1.1013,-1.1009,-1.1003,-1.1003,-1.0994,-1.0991,-1.0984,-1.0975,-1.0964,-1.0956,-1.0945,-1.0926,-1.0923,-1.0917,-1.0915,-1.0914,-1.0911,-1.0901,-1.0898,-1.0928,-1.0928,-1.0928,0,0,-1.1039,-1.1034,-1.1028,-1.1015,-1.101,-1.0999,-1.1007,-1.0995,-1.0987,-1.0989,-1.0973,-1.0968,-1.0958,-1.094,-1.0931,-1.0934,-1.0903,-1.0912,-1.0911,-1.0909,-1.0899,-1.0896,-1.0894,-1.0927,-1.0927,-1.0927,0,0,-1.1019,-1.1015,-1.1002,-1.0997,-1.0989,-1.0987,-1.0984,-1.0976,-1.0973,-1.0958,-1.0959,-1.0949,-1.0929,-1.0922,-1.0915,-1.0894,-1.0895,-1.0891,-1.0881,-1.087,-1.0868,-1.0866,-1.0858,-1.0855,-1.0889,-1.0889,-1.0889,0,-1.101,-1.0995,-1.0995,-1.0984,-1.0978,-1.0982,-1.0969,-1.0963,-1.0951,-1.0947,-1.0951,-1.0927,-1.092,-1.09,-1.0896,-1.0891,-1.0886,-1.0891,-1.0869,-1.0866,-1.0864,-1.0857,-1.0854,-1.0888,-1.0888,-1.0889,-1.0889,0,-1.0984,-1.0973,-1.0964,-1.0954,-1.0948,-1.0935,-1.0933,-1.0926,-1.0927,-1.0924,-1.0908,-1.09,-1.0888,-1.0883,-1.0883,-1.0864,-1.0866,-1.087,-1.0876,-1.0861,-1.0854,-1.0851,-1.0888,-1.0888,-1.0888,-1.0888,0,0,-1.0956,-1.0948,-1.0945,-1.0941,-1.0933,-1.0924,-1.0912,-1.0902,-1.0896,-1.0888,-1.0877,-1.0861,-1.0865,-1.0858,-1.0857,-1.0848,-1.0831,-1.0852,-1.0852,-1.0848,-1.0809,-1.0806,-1.0802,-1.0832,-1.0832,-1.0831,-1.081,0,-1.0935,-1.0915,-1.0916,-1.0896,-1.0887,-1.0891,-1.088,-1.0874,-1.0871,-1.0861,-1.0858,-1.0847,-1.0853,-1.0848,-1.084,-1.0835,-1.0823,-1.0837,-1.0821,-1.082,-1.0822,-1.0799,-1.0795,-1.0774,-1.0807,-1.0806,-1.0806,0,-1.0907,-1.09,-1.088,-1.0875,-1.087,-1.0861,-1.0852,-1.0843,-1.0836,-1.0835,-1.0828,-1.0829,-1.0815,-1.0824,-1.0806,-1.0815,-1.0809,-1.0806,-1.0805,-1.0802,-1.0811,-1.0794,-1.0768,-1.0765,-1.0802,-1.0802,-1.0802,0,-1.0888,-1.0874,-1.086,-1.0856,-1.085,-1.0843,-1.084,-1.0833,-1.0827,-1.0819,-1.0815,-1.0805,-1.0799,-1.079,-1.0788,-1.0795,-1.077,-1.0778,-1.0767,-1.0767,-1.076,-1.076,-1.0732,-1.0758,-1.0758,-1.0758,-1.0758,0,-1.0863,-1.0851,-1.0852,-1.0843,-1.0829,-1.083,-1.0816,-1.0813,-1.0808,-1.0798,-1.0801,-1.0792,-1.079,-1.078,-1.0778,-1.0763,-1.076,-1.0758,-1.0758,-1.0757,-1.0757,-1.0752,-1.0753,-1.0758,-1.0758,-1.0758,-1.0758,0,-1.0839,-1.0839,-1.0825,-1.082,-1.0819,-1.0809,-1.0805,-1.0796,-1.0795,-1.0782,-1.078,-1.0776,-1.0765,-1.0763,-1.0749,-1.0748,-1.0729,-1.073,-1.0732,-1.0732,-1.0721,-1.0721,-1.0686,-1.0681,-1.0712,-1.0712,-1.0712,0,-1.0823,-1.0814,-1.0809,-1.0803,-1.08,-1.0791,-1.0785,-1.0786,-1.078,-1.0772,-1.0764,-1.0754,-1.0745,-1.0727,-1.0723,-1.0712,-1.0712,-1.0701,-1.0711,-1.0711,-1.0711,-1.0711,-1.071,-1.0699,-1.0698,-1.0698,-1.0698,0,-1.0794,-1.0795,-1.0787,-1.0779,-1.0773,-1.0767,-1.0761,-1.0756,-1.0756,-1.0749,-1.0738,-1.0732,-1.0719,-1.0708,-1.0698,-1.0693,-1.0695,-1.0695,-1.0692,-1.0691,-1.0692,-1.069,-1.0726,-1.0695,-1.0696,-1.0696,-1.0696,-1.0696,-1.0772,-1.0764,-1.076,-1.0751,-1.0748,-1.0742,-1.0734,-1.0733,-1.0724,-1.0714,-1.0716,-1.0704,-1.0697,-1.0684,-1.0679,-1.0669,-1.0673,-1.0668,-1.0667,-1.0665,-1.0664,-1.0695,-1.0668,-1.0668,-1.0668,-1.0668,-1.0668,0,-1.0742,-1.074,-1.0732,-1.0725,-1.0718,-1.0723,-1.0717,-1.0711,-1.0701,-1.0695,-1.0688,-1.0675,-1.0665,-1.0661,-1.0651,-1.0644,-1.0645,-1.0641,-1.0641,-1.064,-1.0662,-1.0665,-1.0641,-1.0641,-1.0641,-1.0641,-1.0641,-1.0641,-1.0726,-1.0713,-1.0713,-1.0698,-1.0696,-1.0686,-1.0682,-1.0677,-1.0673,-1.0659,-1.0652,-1.065,-1.0645,-1.0635,-1.0625,-1.0624,-1.062,-1.0616,-1.0615,-1.0636,-1.0638,-1.0641,-1.0644,-1.0615,-1.0615,-1.0594,-1.0593,-1.0593]},{"header":{"parameterUnit":"m.s-1","parameterCategory":1,"la1":30.2991,"la2":30.254,"lo1":-89.0895,"lo2":-89.0444,"dy":0.0017,"dx":0.0017,"nx":28,"ny":28,"refTime":"2025-05-15T03:00:00:Z","depth":0,"parameterNumber":3,"parameterNumberName":"V-component_of_WINDS"},"data":[0,0,0,0,0,0,0,0,0,0,0,0,0,0,0,0,0,0,0,0,0,0,0,0,0,0,0,0,0,0,0,0,0,0,0,0,0,0,0,0,0,0,0,0,0,0,0,0,0,0,0,0,0,0,0,0,0,0,5.025,5.025,0,5.0247,5.0247,5.0247,5.0193,5.0191,5.019,5.0189,5.0185,5.0186,5.0187,0,0,0,0,0,0,0,0,0,0,0,0,0,5.0208,5.0209,5.025,5.025,5.025,5.0247,5.0247,5.0247,5.0193,5.0191,5.019,5.0188,5.0184,5.0186,5.0187,0,0,0,0,0,0,0,0,0,0,0,0,0,5.0218,5.021,5.025,5.0223,5.022,5.0247,5.0247,5.0247,5.0193,5.0191,5.0189,5.0187,5.0184,5.0186,5.0187,5.024,0,0,5.0193,5.0193,0,0,0,0,0,0,0,0,5.0217,5.0219,5.0227,5.0224,5.0222,5.0218,5.0231,5.0244,5.0194,5.0204,5.0189,5.0186,5.0197,5.0198,5.0202,5.0239,5.0239,5.0193,5.0194,5.0195,5.0195,0,0,0,0,0,0,0,5.0217,5.0219,5.0249,5.0227,5.0224,5.021,5.0209,5.0233,5.0212,5.0202,5.0199,5.0199,5.0196,5.02,5.0201,5.0239,5.0193,5.0194,5.0195,5.0196,5.0321,5.0323,0,0,0,0,0,0,5.022,5.0219,5.0249,5.0248,5.0214,5.0213,5.0212,5.0221,5.0212,5.0208,5.0201,5.0197,5.0198,5.0199,5.0201,5.0263,5.0195,5.0196,5.0197,5.0319,5.0321,5.0324,0,0,0,0,0,0,5.0219,5.0223,5.0249,5.0233,5.0235,5.0216,5.0227,5.0222,5.0227,5.021,5.0206,5.0209,5.0197,5.0199,5.0231,5.0262,5.0197,5.0199,5.0316,5.032,5.0323,5.0386,0,0,0,0,0,0,5.0218,5.0223,5.0243,5.0234,5.0236,5.0279,5.0229,5.0224,5.023,5.0225,5.0217,5.0214,5.0195,5.0229,5.0233,5.0263,5.02,5.0313,5.0318,5.0322,5.0381,5.0391,5.0399,0,0,0,0,0,5.0217,5.026,5.0244,5.0248,5.026,5.0281,5.0282,5.026,5.0233,5.0253,5.0242,5.0214,5.0258,5.0232,5.0236,5.0268,5.0311,5.0316,5.0321,5.0376,5.0389,5.0399,0,0,0,0,0,0,5.0272,5.0258,5.024,5.0282,5.0283,5.0271,5.0295,5.0273,5.0281,5.0276,5.0247,5.0246,5.0283,5.0278,5.025,5.0319,5.028,5.0286,5.032,5.0332,5.0341,5.0341,5.0202,0,0,0,0,0,5.0289,5.0307,5.0294,5.0332,5.0333,5.0315,5.0323,5.0306,5.0305,5.0305,5.0297,5.0298,5.0312,5.0321,5.0333,5.038,5.0378,5.0404,5.0413,5.0421,5.0426,5.0452,5.0463,5.0341,5.0341,5.034,0,0,5.0324,5.0319,5.0332,5.0343,5.0342,5.0361,5.0315,5.0337,5.0352,5.0309,5.0339,5.0333,5.0332,5.0372,5.039,5.037,5.046,5.0427,5.0433,5.0435,5.0458,5.047,5.048,5.0344,5.0343,5.0343,0,0,5.0399,5.0396,5.0428,5.0429,5.0428,5.0416,5.0423,5.0416,5.0411,5.0441,5.041,5.0426,5.045,5.0451,5.0455,5.0532,5.0507,5.0536,5.0585,5.061,5.062,5.0628,5.0656,5.0667,5.0542,5.0542,5.0542,0,5.0442,5.0471,5.0447,5.0472,5.0478,5.0441,5.0474,5.0475,5.0478,5.0483,5.0461,5.0492,5.0488,5.0529,5.0548,5.0552,5.056,5.0537,5.062,5.0629,5.0636,5.0663,5.0673,5.0546,5.0545,5.0545,5.0545,0,5.0525,5.0545,5.0571,5.0576,5.0585,5.0614,5.0595,5.0606,5.0589,5.0579,5.0611,5.0606,5.0617,5.0625,5.0608,5.0664,5.0651,5.0625,5.0586,5.0652,5.0676,5.0686,5.0551,5.055,5.0549,5.0548,0,0,5.0632,5.0626,5.0636,5.0638,5.0636,5.0651,5.0678,5.069,5.0701,5.0705,5.0727,5.0749,5.0726,5.073,5.0713,5.0735,5.0797,5.0706,5.0706,5.0724,5.086,5.088,5.0892,5.0781,5.0783,5.0784,5.086,0,5.0704,5.0751,5.0732,5.078,5.0799,5.0765,5.0789,5.0791,5.0782,5.0797,5.0788,5.0805,5.0772,5.0774,5.0795,5.0786,5.0824,5.078,5.0802,5.0803,5.0803,5.0904,5.0925,5.0996,5.0869,5.0871,5.0872,0,5.0794,5.0804,5.0854,5.085,5.0858,5.088,5.0889,5.0904,5.0905,5.0897,5.0904,5.0882,5.0908,5.087,5.0906,5.0876,5.0884,5.0881,5.0884,5.0885,5.0841,5.0909,5.1018,5.103,5.0887,5.0885,5.0884,0,5.0869,5.0894,5.0928,5.0931,5.0927,5.0943,5.0942,5.0941,5.095,5.0958,5.0964,5.0975,5.0981,5.099,5.0972,5.0945,5.1012,5.0971,5.1007,5.1007,5.1022,5.1021,5.1135,5.1027,5.1027,5.1027,5.1026,0,5.0951,5.0984,5.0961,5.0982,5.1018,5.0996,5.1031,5.1027,5.1027,5.1046,5.1017,5.1036,5.1011,5.1028,5.1014,5.1047,5.105,5.1045,5.1041,5.1047,5.1048,5.1052,5.1047,5.1029,5.1029,5.1028,5.1028,0,5.104,5.1026,5.1061,5.1055,5.1054,5.1081,5.1076,5.1095,5.1086,5.1111,5.1115,5.11,5.1119,5.1102,5.1119,5.1109,5.1154,5.1142,5.1154,5.1151,5.1187,5.1185,5.1308,5.1323,5.1205,5.1206,5.1207,0,5.1094,5.1118,5.1116,5.1127,5.1128,5.1147,5.1156,5.1136,5.1146,5.1151,5.117,5.1186,5.1197,5.1228,5.1218,5.1231,5.122,5.1263,5.1222,5.1229,5.1222,5.1221,5.1223,5.1271,5.1272,5.1274,5.1274,0,5.1191,5.1183,5.1198,5.1211,5.1223,5.1232,5.1239,5.125,5.1229,5.1242,5.1261,5.127,5.1289,5.1305,5.1316,5.1314,5.1291,5.1288,5.1297,5.1304,5.131,5.1308,5.1177,5.1285,5.1284,5.1283,5.1282,5.1282,5.1264,5.1285,5.1287,5.1305,5.1308,5.1315,5.1334,5.1327,5.1343,5.1357,5.1344,5.1367,5.1368,5.138,5.1382,5.14,5.1382,5.1395,5.1398,5.1402,5.1407,5.1307,5.1401,5.1401,5.1401,5.1401,5.14,0,5.136,5.136,5.1377,5.1388,5.1403,5.1381,5.1388,5.1401,5.1422,5.1426,5.1439,5.1461,5.1477,5.147,5.1484,5.15,5.149,5.1504,5.1503,5.1503,5.1422,5.1413,5.1512,5.1512,5.1512,5.1512,5.1512,5.1512,5.1411,5.1446,5.1439,5.1476,5.1475,5.1499,5.1505,5.1512,5.1515,5.1542,5.1555,5.1551,5.155,5.1565,5.1579,5.1576,5.1583,5.1601,5.1595,5.152,5.1509,5.1498,5.149,5.1603,5.1603,5.1675,5.1675,5.1676]}]]